Location: Unspecified
(0.0000°N, 0.0000°E)
Time: 05:47:42
(UTC+00:00)

Vanguard 2 Rocket - Pass Details

Date: 10 October 2022
Orbit: 555 x 3321 km, 32.9° (Epoch: 06 December)

Event Time Altitude Azimuth Distance (km) Brightness Sun altitude
Rises 17:28:07 0° 242° (WSW) 6,176 12.7 4.7°
Reaches altitude 10° 17:31:44 10° 245° (WSW) 5,446 12.5 3.8°
Maximum altitude 17:49:36 68° 324° (NW) 3,453 10.0 -0.7°
Drops below altitude 10° 18:09:20 10° 45° (NE) 5,896 10.6 -5.6°
Sets 18:13:30 0° 48° (NE) 6,681 10.8 -6.6°
